This is the latest recevied weather packets stored in our database for station/object K3RUP-1. If no packets are shown the sender has not sent any weather packets the latest 10 day(s).
| Time | Temp. | Humidity | Pressure | Rain* | Wind** | Luminosity | Snow |
|---|---|---|---|---|---|---|---|
| 1777970853 | 16.11° C | 69% | 1010.2 hPa | 0 mm | - | 0 W/m² | - |
| 1777970552 | 16.11° C | 67% | 1010.3 hPa | 0 mm | - | 0 W/m² | - |
| 1777970248 | 16.11° C | 67% | 1010.1 hPa | 0 mm | - | 0 W/m² | - |
| 1777969945 | 16.11° C | 68% | 1010.1 hPa | 0 mm | - | 0 W/m² | - |
| 1777969641 | 16.11° C | 67% | 1010.1 hPa | 0 mm | - | 0 W/m² | - |
| 1777969339 | 16.11° C | 69% | 1010.2 hPa | 0 mm | - | 0 W/m² | - |
| 1777969034 | 15.56° C | 68% | 1010.3 hPa | 0 mm | - | 0 W/m² | - |
| 1777968732 | 15° C | 72% | 1010.4 hPa | 0 mm | - | 0 W/m² | - |
| 1777968429 | 15° C | 75% | 1010.4 hPa | 0 mm | - | 0 W/m² | - |
| 1777968124 | 15° C | 78% | 1010.3 hPa | 0 mm | - | 0 W/m² | - |
| 1777967821 | 13.89° C | 79% | 1010.2 hPa | 0 mm | - | 0 W/m² | - |
| 1777967518 | 13.89° C | 83% | 1010.2 hPa | 0 mm | - | 0 W/m² | - |
| 1777967215 | 13.89° C | 83% | 1010.3 hPa | 0 mm | - | 0 W/m² | - |
| 1777966911 | 13.33° C | 85% | 1010.4 hPa | 0 mm | - | 0 W/m² | - |
| 1777966609 | 13.33° C | 85% | 1010.6 hPa | 0 mm | - | 0 W/m² | - |
| 1777966307 | 13.33° C | 86% | 1010.1 hPa | 0 mm | - | 0 W/m² | - |
| 1777966003 | 13.33° C | 87% | 1010.4 hPa | 0 mm | - | 0 W/m² | - |
| 1777965700 | 13.33° C | 87% | 1010.3 hPa | 0 mm | - | 0 W/m² | - |
| 1777965395 | 13.33° C | 87% | 1010.1 hPa | 0 mm | - | 0 W/m² | - |
| 1777965093 | 13.33° C | 87% | 1010.2 hPa | 0 mm | - | 0 W/m² | - |
| 1777964790 | 13.33° C | 87% | 1010.2 hPa | 0 mm | - | 0 W/m² | - |
| 1777964486 | 13.33° C | 86% | 1010.4 hPa | 0 mm | - | 0 W/m² | - |
| 1777964182 | 13.89° C | 86% | 1010.2 hPa | 0 mm | - | 0 W/m² | - |
| 1777963879 | 13.89° C | 86% | 1010.3 hPa | 0 mm | - | 0 W/m² | - |
| 1777963576 | 13.89° C | 85% | 1010.2 hPa | 0 mm | - | 0 W/m² | - |
* Rain latest hour (hover to see other rain measurements)
** Current wind speed in m/s (hover to see current wind gust speed)